[[{"header":{"parameterUnit":"m.s-1","parameterCategory":1,"la1":30.2991,"la2":30.254,"lo1":-89.0895,"lo2":-89.0444,"dy":0.0017,"dx":0.0017,"nx":28,"ny":28,"refTime":"2024-07-16T09:00:00:Z","depth":0,"parameterNumber":2,"parameterNumberName":"U-component_of_WINDS"},"data":[0,0,0,0,0,0,0,0,0,0,0,0,0,0,0,0,0,0,0,0,0,0,0,0,0,0,0,0,0,0,0,0,0,0,0,0,0,0,0,0,0,0,0,0,0,0,0,0,0,0,0,0,0,0,0,0,0,0,0.3936,0.3937,0,0.3997,0.3997,0.3998,0.4032,0.4032,0.4032,0.4032,0.4092,0.4093,0.4095,0,0,0,0,0,0,0,0,0,0,0,0,0,0.3846,0.3848,0.3936,0.3937,0.3938,0.3996,0.3997,0.3998,0.4032,0.4032,0.4032,0.4032,0.4091,0.4093,0.4095,0,0,0,0,0,0,0,0,0,0,0,0,0,0.3894,0.3848,0.3936,0.3962,0.3965,0.3996,0.3997,0.3998,0.4032,0.4032,0.4032,0.4033,0.4091,0.4093,0.4095,0.4105,0,0,0.4102,0.4103,0,0,0,0,0,0,0,0,0.3891,0.3897,0.3957,0.396,0.3963,0.4007,0.3988,0.4034,0.4032,0.4006,0.4032,0.4033,0.4063,0.4068,0.4079,0.4108,0.4111,0.4102,0.4104,0.4104,0.4105,0,0,0,0,0,0,0,0.3888,0.3895,0.396,0.3958,0.3962,0.3969,0.3976,0.3997,0.4033,0.4009,0.4011,0.4018,0.4065,0.4077,0.408,0.4112,0.4102,0.4104,0.4105,0.4106,0.415,0.415,0,0,0,0,0,0,0.3881,0.3892,0.3958,0.3962,0.3927,0.397,0.3978,0.3993,0.4033,0.4039,0.4018,0.4019,0.4073,0.4078,0.4083,0.4096,0.4104,0.4107,0.4108,0.4151,0.415,0.415,0,0,0,0,0,0,0.3879,0.3886,0.3956,0.3927,0.3937,0.3972,0.3988,0.3994,0.4005,0.404,0.4046,0.4023,0.4073,0.408,0.4099,0.4099,0.4108,0.411,0.4151,0.415,0.415,0.4124,0,0,0,0,0,0,0.3876,0.3885,0.3891,0.3927,0.3938,0.3972,0.3988,0.3995,0.4009,0.4012,0.4047,0.4052,0.4074,0.4096,0.4101,0.4102,0.4111,0.4151,0.4151,0.415,0.4125,0.4123,0.4121,0,0,0,0,0,0.3873,0.3881,0.3891,0.3899,0.3946,0.3972,0.3978,0.4003,0.4009,0.4014,0.4036,0.4051,0.4098,0.4097,0.4104,0.4105,0.4151,0.4151,0.415,0.4126,0.4123,0.4121,0,0,0,0,0,0,0.3842,0.3886,0.3898,0.3918,0.3941,0.3978,0.3985,0.4,0.4021,0.4023,0.4052,0.4059,0.4076,0.4093,0.4091,0.4116,0.4126,0.4127,0.4105,0.4103,0.4101,0.4096,0.4113,0,0,0,0,0,0.3838,0.3857,0.3894,0.3908,0.3919,0.395,0.3962,0.3979,0.4004,0.4014,0.4038,0.406,0.408,0.4092,0.4112,0.4127,0.4134,0.4131,0.4129,0.4127,0.4128,0.4135,0.4134,0.4149,0.4149,0.4149,0,0,0.3829,0.3855,0.3866,0.3902,0.3922,0.394,0.3958,0.3976,0.3989,0.4017,0.4037,0.4054,0.4082,0.4098,0.4107,0.4113,0.4125,0.4127,0.4125,0.4126,0.4135,0.4133,0.4132,0.4149,0.4149,0.4149,0,0,0.3822,0.3845,0.3858,0.3878,0.3908,0.3928,0.3931,0.3966,0.3978,0.3999,0.402,0.4035,0.4069,0.4087,0.41,0.4098,0.4113,0.4104,0.4093,0.41,0.4099,0.4098,0.4096,0.4095,0.4104,0.4104,0.4104,0,0.3808,0.3836,0.3863,0.388,0.3895,0.3921,0.3934,0.3951,0.3986,0.3995,0.4001,0.4043,0.4063,0.4084,0.4083,0.4094,0.4097,0.41,0.4097,0.4096,0.4096,0.4094,0.4094,0.4103,0.4103,0.4103,0.4103,0,0.3816,0.3835,0.3842,0.3876,0.3891,0.3906,0.3934,0.3946,0.3962,0.3981,0.4,0.4025,0.405,0.4056,0.4071,0.4079,0.4081,0.4092,0.4102,0.4093,0.4092,0.4091,0.4101,0.4101,0.4102,0.4102,0,0,0.3793,0.384,0.3842,0.3857,0.3891,0.3906,0.3921,0.3946,0.3955,0.3978,0.399,0.4017,0.4027,0.4042,0.4059,0.4065,0.4061,0.4075,0.4076,0.4071,0.4069,0.406,0.4059,0.407,0.407,0.407,0.4066,0,0.379,0.382,0.3844,0.3864,0.3881,0.3905,0.3918,0.394,0.3957,0.3974,0.3993,0.4011,0.4023,0.4032,0.4039,0.406,0.406,0.406,0.4081,0.4081,0.4073,0.4059,0.405,0.4045,0.4066,0.4066,0.4066,0,0.3792,0.3814,0.3836,0.3867,0.3875,0.3886,0.391,0.3926,0.395,0.3962,0.3978,0.3996,0.4011,0.402,0.4041,0.404,0.405,0.4061,0.4061,0.4064,0.4073,0.406,0.4044,0.4043,0.4066,0.4066,0.4066,0,0.3772,0.3806,0.3824,0.3836,0.3873,0.388,0.3895,0.392,0.3933,0.3953,0.3961,0.3983,0.3994,0.401,0.4032,0.4037,0.405,0.4061,0.406,0.4059,0.4061,0.4061,0.4046,0.4069,0.4069,0.4069,0.4069,0,0.3766,0.3779,0.3815,0.3826,0.3839,0.3866,0.3878,0.3896,0.3917,0.393,0.3952,0.3963,0.3993,0.4007,0.4025,0.4038,0.4044,0.4053,0.4057,0.4051,0.4049,0.4057,0.4058,0.4068,0.4068,0.4068,0.4068,0,0.3746,0.3772,0.3792,0.3825,0.3833,0.3842,0.3869,0.388,0.3898,0.3914,0.3919,0.3948,0.3966,0.399,0.4016,0.4027,0.4038,0.4046,0.403,0.4033,0.403,0.4029,0.4019,0.4018,0.4042,0.4041,0.4041,0,0.3741,0.3751,0.3785,0.3796,0.3811,0.3828,0.3841,0.3866,0.3879,0.3906,0.3913,0.3933,0.395,0.3978,0.4,0.4019,0.4026,0.4021,0.403,0.4022,0.4025,0.4024,0.4024,0.4019,0.4019,0.4019,0.4018,0,0.3729,0.3741,0.3759,0.3781,0.3796,0.3815,0.3835,0.3842,0.3871,0.3883,0.3903,0.3916,0.3942,0.3961,0.3982,0.3997,0.4012,0.4015,0.4016,0.4009,0.3999,0.4003,0.4024,0.4016,0.4016,0.4016,0.4016,0.4016,0.3716,0.3726,0.3751,0.377,0.3787,0.3804,0.3815,0.3834,0.3851,0.3874,0.3888,0.3906,0.3928,0.3959,0.3973,0.3986,0.3992,0.3993,0.3993,0.3993,0.399,0.3998,0.399,0.3991,0.3991,0.3991,0.3991,0,0.3705,0.3721,0.3739,0.3765,0.378,0.3793,0.3815,0.3825,0.3841,0.3861,0.3877,0.3898,0.3916,0.3939,0.3958,0.3965,0.3972,0.3969,0.3968,0.3971,0.3985,0.3982,0.3962,0.3962,0.3962,0.3962,0.3962,0.3962,0.37,0.3716,0.373,0.3754,0.3771,0.3789,0.38,0.3815,0.3831,0.3853,0.3868,0.3884,0.3904,0.3924,0.3941,0.3947,0.3953,0.3947,0.3955,0.3968,0.397,0.3973,0.397,0.3948,0.3948,0.394,0.394,0.394]},{"header":{"parameterUnit":"m.s-1","parameterCategory":1,"la1":30.2991,"la2":30.254,"lo1":-89.0895,"lo2":-89.0444,"dy":0.0017,"dx":0.0017,"nx":28,"ny":28,"refTime":"2024-07-16T09:00:00:Z","depth":0,"parameterNumber":3,"parameterNumberName":"V-component_of_WINDS"},"data":[0,0,0,0,0,0,0,0,0,0,0,0,0,0,0,0,0,0,0,0,0,0,0,0,0,0,0,0,0,0,0,0,0,0,0,0,0,0,0,0,0,0,0,0,0,0,0,0,0,0,0,0,0,0,0,0,0,0,4.9217,4.9217,0,4.9223,4.9223,4.9223,4.9168,4.9167,4.9165,4.9164,4.9169,4.917,4.9172,0,0,0,0,0,0,0,0,0,0,0,0,0,4.9158,4.9159,4.9217,4.9217,4.9217,4.9223,4.9223,4.9223,4.9169,4.9167,4.9165,4.9163,4.9168,4.917,4.9172,0,0,0,0,0,0,0,0,0,0,0,0,0,4.9176,4.916,4.9217,4.9191,4.9189,4.9223,4.9223,4.9223,4.9169,4.9167,4.9165,4.9162,4.9168,4.917,4.9172,4.9231,0,0,4.9179,4.918,0,0,0,0,0,0,0,0,4.9175,4.9178,4.9195,4.9193,4.919,4.9193,4.9204,4.9226,4.917,4.9176,4.9164,4.9161,4.9178,4.918,4.9186,4.9232,4.9232,4.9179,4.9181,4.9182,4.9182,0,0,0,0,0,0,0,4.9174,4.9177,4.9219,4.9195,4.9192,4.9178,4.9178,4.9208,4.919,4.9176,4.9172,4.9173,4.9177,4.9184,4.9185,4.9232,4.9179,4.9181,4.9183,4.9184,4.9326,4.9328,0,0,0,0,0,0,4.9176,4.9177,4.9219,4.9219,4.9177,4.9181,4.9181,4.9194,4.919,4.9187,4.9175,4.9171,4.9181,4.9183,4.9185,4.9254,4.9182,4.9184,4.9185,4.9324,4.9327,4.9329,0,0,0,0,0,0,4.9175,4.918,4.9219,4.9197,4.9201,4.9185,4.92,4.9195,4.9202,4.9189,4.9186,4.9185,4.9179,4.9182,4.922,4.9253,4.9185,4.9187,4.9321,4.9325,4.9328,4.9392,0,0,0,0,0,0,4.9174,4.918,4.9203,4.9198,4.9202,4.9254,4.9202,4.9197,4.9206,4.9201,4.9198,4.9195,4.9178,4.9217,4.9223,4.9255,4.9189,4.9318,4.9323,4.9327,4.9387,4.9398,4.9407,0,0,0,0,0,4.9172,4.9221,4.9205,4.921,4.923,4.9256,4.9259,4.9238,4.9209,4.9232,4.9223,4.9195,4.9249,4.9222,4.9227,4.9261,4.9316,4.9321,4.9326,4.9383,4.9396,4.9406,0,0,0,0,0,0,4.923,4.922,4.9201,4.9251,4.9255,4.9247,4.9275,4.9252,4.9264,4.9258,4.9231,4.9231,4.9274,4.9271,4.9241,4.9318,4.9277,4.9284,4.9318,4.933,4.934,4.9339,4.9191,0,0,0,0,0,4.9249,4.9271,4.9261,4.9305,4.9308,4.9291,4.9302,4.9285,4.9288,4.929,4.9284,4.9288,4.9306,4.9318,4.9333,4.9387,4.9385,4.9413,4.9422,4.9431,4.9437,4.9464,4.9476,4.9347,4.9347,4.9347,0,0,4.9287,4.9284,4.93,4.9317,4.9318,4.9341,4.9293,4.932,4.9337,4.9294,4.9329,4.9326,4.9328,4.9374,4.9394,4.9373,4.9472,4.9437,4.9444,4.9446,4.9471,4.9483,4.9494,4.9351,4.935,4.935,0,0,4.9369,4.937,4.9406,4.9409,4.9411,4.94,4.9409,4.9405,4.94,4.9436,4.9404,4.9424,4.9455,4.9458,4.9463,4.9546,4.9521,4.9552,4.9603,4.963,4.9641,4.965,4.9679,4.969,4.9558,4.9559,4.9559,0,4.9417,4.9451,4.9428,4.9457,4.9465,4.9427,4.9464,4.9467,4.9475,4.9481,4.9458,4.9496,4.9495,4.9541,4.9561,4.9567,4.9576,4.9552,4.9641,4.965,4.9658,4.9685,4.9697,4.9562,4.9562,4.9562,4.9561,0,4.9509,4.9533,4.9563,4.9571,4.9582,4.9615,4.9597,4.9611,4.9593,4.9584,4.9621,4.9618,4.9632,4.9642,4.9625,4.9686,4.9673,4.9646,4.9604,4.9674,4.97,4.971,4.9568,4.9566,4.9565,4.9564,0,0,4.9628,4.9624,4.9635,4.9638,4.9638,4.9656,4.9687,4.9701,4.9714,4.972,4.9745,4.9772,4.9747,4.9754,4.9737,4.9761,4.9826,4.9731,4.973,4.9748,4.9892,4.9913,4.9925,4.981,4.9812,4.9813,4.9892,0,4.9708,4.9761,4.9741,4.9795,4.9817,4.9781,4.9808,4.9811,4.9803,4.982,4.9811,4.9831,4.9796,4.98,4.9822,4.9814,4.9855,4.9808,4.9832,4.9833,4.9832,4.9939,4.996,5.0035,4.9902,4.9904,4.9905,0,4.9808,4.9819,4.9875,4.9871,4.988,4.9904,4.9915,4.9932,4.9935,4.9927,4.9935,4.9912,4.9942,4.9901,4.9941,4.9909,4.9918,4.9915,4.9918,4.9919,4.9873,4.9942,5.0058,5.0069,4.992,4.9919,4.9918,0,4.9889,4.9918,4.9955,4.9959,4.9955,4.9973,4.9972,4.9973,4.9982,4.9992,4.9998,5.0011,5.0018,5.0029,5.001,4.9982,5.0053,5.001,5.0047,5.0048,5.0063,5.0063,5.0182,5.007,5.007,5.0069,5.0069,0,4.998,5.0016,4.9991,5.0014,5.0053,5.0029,5.0068,5.0064,5.0064,5.0085,5.0055,5.0075,5.005,5.0068,5.0054,5.0089,5.0092,5.0087,5.0083,5.009,5.009,5.0095,5.0089,5.0072,5.0072,5.0071,5.0071,0,5.0077,5.0062,5.01,5.0094,5.0093,5.0122,5.0116,5.0137,5.0127,5.0154,5.0159,5.0143,5.0162,5.0145,5.0164,5.0154,5.0201,5.019,5.0201,5.0197,5.0235,5.0232,5.0361,5.0377,5.0255,5.0256,5.0257,0,5.0136,5.0163,5.0159,5.0171,5.0173,5.0192,5.0202,5.018,5.0191,5.0196,5.0216,5.0233,5.0245,5.0278,5.0268,5.0282,5.027,5.0315,5.0272,5.0278,5.027,5.0269,5.0271,5.0323,5.0325,5.0326,5.0327,0,5.0243,5.0234,5.0249,5.0262,5.0275,5.0284,5.029,5.0302,5.0279,5.0293,5.0312,5.0322,5.0341,5.0358,5.0369,5.0368,5.0344,5.034,5.0349,5.0357,5.0362,5.0359,5.0224,5.0337,5.0336,5.0335,5.0335,5.0334,5.0322,5.0344,5.0345,5.0363,5.0365,5.0372,5.0391,5.0384,5.04,5.0414,5.0399,5.0423,5.0424,5.0436,5.0438,5.0456,5.0437,5.0451,5.0454,5.0458,5.0463,5.0359,5.0458,5.0458,5.0457,5.0457,5.0457,0,5.0427,5.0425,5.0442,5.0452,5.0466,5.0443,5.0449,5.0462,5.0483,5.0486,5.0499,5.0521,5.0538,5.0529,5.0543,5.0559,5.0549,5.0564,5.0562,5.0562,5.0479,5.047,5.0572,5.0572,5.0572,5.0572,5.0572,5.0572,5.0483,5.0518,5.051,5.0546,5.0544,5.0567,5.0573,5.0579,5.0581,5.0608,5.0621,5.0615,5.0614,5.0627,5.0641,5.0638,5.0645,5.0664,5.0657,5.058,5.0568,5.0557,5.0548,5.0666,5.0666,5.0739,5.0739,5.074]}]]